Retour au catalogue

STARLINK-5231

ActifCommunicationsVLEO
NORAD 54182·PAYLOAD·🇺🇸 United States

Lancé Oct 28, 2022 depuis Vandenberg Space Force Base

Loading…

Prochains Passages (prochaines 24 heures)

TLE

FraisSource: CelesTrak SupGP

Époque: Sep 14, 2026, 22:09 UTC

1 54182C 22141AB  26257.92340278  .00512430  00000+0  29478-1 0  2579
2 54182  53.1604 203.5916 0001428  91.9319 227.3050 15.11706471    17

Suivez STARLINK-5231 en temps réel avec AllMySat

Download on the App Store